www.pogodaiklimat.ru

Погода и климат >> Архив погоды >> Буркина-Фасо >> Dori


ПОГОДА в Dori

  • Прогноз погоды в Dori
  • Монитор погоды в Dori
  • Климат города

АРХИВ ПОГОДЫ в Dori

Время (UTC), дата Ветер
(напр.,м/с)
 
Видим.   Явления Облачность Т
(С)
Тd
(С)
f
(%)
Тe
(С)
Тes
(С)
Комфортность P
(гПа)
Po
(гПа)
Тmin
(С)
Tmax
(С)
R
(мм)
R24
(мм)
S
(см)
00 11.11 штиль 0 10 км 9/0
[Ci sp]
+22.2 +6.9 37 +23 +23 комфорт 1010.7 979.8
03 11.11 штиль 0 10 км 9/0
[Ci sp]
+19.2 +7.5 47 +20 +20 1010.1 979.1
06 11.11 штиль 0 10 км 9/0
[Ci sp]
+17.7 +9.3 58 +18 +18 1011.2 979.9 +17.7
09 11.11 ЮВ 1 10 км 9/0
[Ci sp]
+29.7 +5.3 21 +28 +35 жарко 1012.4 981.3
12 11.11 СВ 2 10 км 9/0
[Ci sp]
+35.3 +3.5 14 +32 +45 жарко 1010.9 980.0
15 11.11 С 1 10 км 9/0
[Ci sp]
+35.9 +4.1 14 +33 +40 жарко 1009.2 978.2
18 11.11 штиль 0 10 км 9/0
[Ci sp]
+31.0 +7.7 23 +30 +30 жарко 1010.2 978.9 +37.0
21 11.11 штиль 0 10 км 9/0
[Ci sp]
+25.0 +8.6 35 +25 +25 комфорт 1010.8 979.8
00 12.11 штиль 0 10 км 9/0
[Ci sp]
+22.3 +10.5 47 +24 +24 комфорт 1010.0 979.2
03 12.11 штиль 0 10 км 9/0
[Ci sp]
+19.7 +6.6 42 +20 +20 1009.4 978.5
06 12.11 штиль 0 10 км 9/0
[Ci sp]
+18.2 +5.8 44 +18 +18 1010.5 979.2 +18.2
09 12.11 С 2 10 км 9/0
[Ci sp]
+27.5 +3.6 22 +26 +32 жарко 1012.2 981.1
12 12.11 СВ 2 10 км 9/0
[Ci sp]
+33.6 +6.0 18 +31 +44 жарко 1010.2 979.2
15 12.11 В 1 10 км 9/0
[Ac trans Ci sp]
+35.5 +5.4 15 +33 +38 жарко 1008.4 977.5
18 12.11 штиль 0 10 км 9/0
[Ac trans Ci sp]
+29.7 +11.8 33 +30 +30 жарко 1008.8 977.5 +37.0
21 12.11 штиль 0 10 км 9/0
[Ci sp]
+24.1 +10.5 42 +25 +25 комфорт 1010.1 979.0
00 13.11 штиль 0 10 км 9/0
[Ci sp]
+21.0 +11.2 53 +23 +23 комфорт 1009.6 978.6
03 13.11 штиль 0 10 км 9/0
[Ci sp]
+20.2 +6.0 40 +21 +21 комфорт 1009.6 978.7
06 13.11 штиль 0 10 км 9/0
[Ac trans Ci sp]
+18.1 +6.9 48 +18 +18 1010.8 979.4 +18.0
09 13.11 СВ 2 10 км 9/0
[Ci sp]
+26.9 +2.7 21 +25 +31 комфорт 1011.1 979.9
12 13.11 С 2 10 км 9/0
[Ac trans Ci sp]
+35.0 +1.9 12 +32 +44 жарко 1009.4 978.5
15 13.11 штиль 0 10 км 9/0
[Ci sp]
+39.4 +2.3 10 +36 +44 очень
жарко
1007.6 976.9
18 13.11 штиль 0 10 км 9/0
[Ci sp]
+30.1 +5.6 21 +31 +31 жарко 1008.5 977.2 +36.8
21 13.11 штиль 0 10 км 9/0
[Ci sp]
+23.8 +9.8 41 +25 +25 комфорт 1009.4 978.2
00 14.11 штиль 0 10 км 9/0
[Ci sp]
+20.5 +12.7 61 +22 +22 комфорт 1009.1 978.2
03 14.11 штиль 0 10 км 9/0
[Ci sp]
+18.2 +12.6 70 +18 +18 1007.9 977.0
06 14.11 штиль 0 10 км 9/0
[Ci sp]
+17.0 +5.9 48 +17 +17 1009.8 978.4 +17.0
09 14.11 С 1 10 км 9/0
[Ci sp]
+27.3 +2.5 20 +26 +32 жарко 1010.5 979.3
12 14.11 С 1 10 км 9/0
[Ci sp]
+34.7 +2.0 13 +32 +46 жарко 1009.1 978.2
15 14.11 З 2 10 км 9/0
[Ci sp]
+35.5 +6.4 17 +33 +39 жарко 1007.4 976.4
18 14.11 штиль 0 10 км 9/0
[Ci sp]
+29.5 +10.6 31 +30 +30 жарко 1008.4 977.1 +36.4
21 14.11 штиль 0 10 км 9/0
[Ci sp]
+23.9 +11.8 47 +26 +26 жарко 1009.7 978.5
00 15.11 штиль 0 10 км 9/0
[Ci sp]
+21.5 +7.7 41 +22 +22 комфорт 1009.6 978.7
03 15.11 штиль 0 10 км 9/0
[Ci sp]
+20.0 +4.9 37 +20 +20 1008.9 978.0
06 15.11 штиль 0 10 км 9/0
[Ci sp]
+18.5 +4.9 41 +19 +19 1010.0 978.6 +18.5
09 15.11 СЗ 2 10 км 9/0
[Ci sp]
+27.0 +1.5 19 +25 +31 комфорт 1011.6 980.4
12 15.11 СВ 1 10 км 9/0
[Ci sp]
+33.0 +1.8 14 +30 +45 жарко 1009.9 978.9
15 15.11 С 2 10 км 9/0
[Ci sp]
+35.3 +3.8 14 +32 +38 жарко 1007.8 976.9
18 15.11 штиль 0 10 км 9/0
[Ci sp]
+30.1 +11.7 32 +31 +31 жарко 1008.5 977.3 +36.0
21 15.11 штиль 0 10 км 9/0
[Ci sp]
+24.5 +11.0 43 +26 +26 жарко 1010.2 979.1
00 16.11 штиль 0 10 км 9/0
[Ci sp]
+22.0 +11.4 51 +24 +24 комфорт 1010.1 979.1
03 16.11 штиль 0 10 км 9/0
[Ci sp]
+20.3 +10.8 54 +22 +22 комфорт 1009.5 978.5
06 16.11 штиль 0 10 км 9/0
[Ac trans Ci sp]
+19.7 +6.9 43 +20 +20 1010.7 979.4 +19.5
09 16.11 С 1 10 км 9/0
[Ci sp]
+27.8 +3.5 21 +26 +33 жарко 1011.2 980.1
12 16.11 штиль 0 10 км 9/0
[Ci sp]
+35.3 +2.7 13 +32 +49 жарко 1009.0 978.2
15 16.11 штиль 0 10 км 9/0
[Ci sp]
+36.4 +6.3 16 +34 +42 очень
жарко
1005.5 974.7
18 16.11 штиль 0 10 км 9/0
[Ac trans Ci sp]
+30.7 +11.9 32 +31 +31 жарко 1008.3 977.1 +37.3
21 16.11 штиль 0 10 км 9/0
[Ci sp]
+25.8 +11.5 41 +27 +27 жарко 1009.9 978.9
00 17.11 штиль 0 10 км 9/0
[Ci sp]
+22.7 +13.0 54 +26 +26 жарко 1009.3 978.5
03 17.11 штиль 0 10 км 9/0
[Ci sp]
+21.0 +7.8 43 +22 +22 комфорт 1008.6 977.7
06 17.11 штиль 0 10 км 9/0
[Ci sp]
+19.0 +8.9 52 +20 +20 1009.6 978.3 +19.0
09 17.11 С 2 10 км 9/0
[Ci sp]
+28.8 +1.3 17 +27 +32 жарко 1010.3 979.3
12 17.11 штиль 0 10 км 9/0
[Ci sp]
+36.0 +2.8 13 +33 +50 жарко 1008.9 977.7
15 17.11 штиль 0 10 км 9/0
[Ci sp]
+37.5 +4.9 13 +35 +42 очень
жарко
1006.6 976.0
18 17.11 штиль 0 10 км 9/0
[Ci sp]
+31.9 +13.5 33 +33 +33 жарко 1007.8 946.7 +38.8

 

Местоположение метеостанции Dori (Буркина-Фасо): широта 14.03 долгота -0.03 высота над уровнем моря 277 м.

В архиве по умолчанию представлена погода в Dori за последнюю неделю. Архивные данные за месяц целиком и за предыдущие месяцы, начиная с января 2011 года, Вы можете получить, выбрав интересующий диапазон дат из раскрывающегося списка и нажав кнопку "Ввод!".

Внимание! Время в таблицах - всемирное. Для получения местного времени необходимо прибавить поправку, которая в Dori равна 0 ч.

Смотрите также архив погоды в соседних городах и на ближайших метеорологических станциях:

Погода в Tillabery (Нигер) (161 км)
Погода в Fada N`Gourma (Буркина-Фасо) (227 км)
Погода в Niamey (Нигер) (245 км)
Погода в Ouagadougou (Буркина-Фасо) (247 км)
Погода в Ouahigouya (Буркина-Фасо) (263 км)
Погода в Po (Буркина-Фасо) (343 км)
Погода в Dapaon (Того) (354 км)
Погода в Navrongo (Гана) (367 км)
Погода в Dosso (Нигер) (367 км)
Погода в Boromo (Буркина-Фасо) (404 км)

Пояснения к столбцам:

Ветер - указаны скорость ветра в м/с - средняя за 10 мин, порывы в срок и между сроками (в фигурных скобках) и направление, откуда дует ветер: С - северный, СВ - северо-восточный, В - восточный, ЮВ - юго-восточный, Ю - южный, ЮЗ - юго-западный, З - западный, СЗ - северо-западный.
Видимость - горизонтальная дальность видимости в метрах или километрах. При видимости от 1 до 10 км при отсутствии осадков обычно наблюдается дымка, при ухудшении видимости до 1 км и менее - туман. В сухую погоду видимость может ухудшаться дымом, пылью или мглою.
Явления - указаны атмосферные явления, наблюдавшиеся в срок или в последний час перед сроком; фигурными скобками обозначены явления, наблюдавшиеся между сроками (за 1-3 часа до срока); квадратными скобками обозначены град или гололедные отложения с указанием их диаметра в мм.
Облачность - указаны через наклонную черту общая и нижняя облачность в баллах и высота нижней границы облаков в метрах; квадратными скобками обозначены формы облаков: Ci - перистые, Cs - перисто-слоистые, Cc - перисто-кучевые, Ac - высококучевые, As - высокослоистые, Sc - слоисто-кучевые, Ns - слоисто-дождевые, Cu - кучевые, Cb - кучево-дождевые. Подробнее классификацию облаков см. в Атласе облаков (PDF).
T - Температура воздуха - температура, измеренная на высоте 2 м над землей.
Td - Температура точки росы - температура, при понижении до которой содержащийся в воздухе водяной пар достигнет насыщения.
f - Относительная влажность воздуха - влажноcть воздуха, измеренная на высоте 2 м над землей.
Te - Эффективная температура - температура, которую ощущает одетый по сезону человек в тени. Характеристика душности погоды. При расчете учитывается влияние влажности воздуха и скорости ветра на теплоощущения человека.
Tes - Эффективная температура на солнце - температура, которую ощущает человек, с поправкой на солнечный нагрев. Характеристика знойности погоды. Зависит от высоты солнца над горизонтом, облачности и скорости ветра. Ночью, в пасмурную погоду, а также при ветре 12 м/с и более поправка равна нулю.
P - Атмосферное давление - приведенное к уровню моря атмосферное давление.
Po - Атмосферное давление - измеренное на уровне метеостанции атмосферное давление.
Tmin - Минимальная температура - минимум температуры воздуха на высоте 2 м над землей.
Tmax - Максимальная температура - максимум температуры воздуха на высоте 2 м над землей.
R - Количество осадков - Количество выпавших осадков за период времени, мм. При наведении курсора мыши на число - период времени, за который выпало указанное количество осадков.
R24 - Количество осадков - Количество выпавших осадков за 24 часа, мм.
S - Снежный покров - Высота снежного покрова, см. При наведении курсора мыши на число - состояние снежного покрова и степень покрытия местности в баллах.